Location: La Comballaz
(46.3780°N, 7.0817°E)
Time: 19:16:19
(UTC+00:00)

AO-7 - Pass Details

Date: 08 December 2022
Orbit: 1440 x 1458 km, 101.9° (Epoch: 07 February)

Event Time Altitude Azimuth Distance (km) Brightness Sun altitude
Rises 03:41:41 0° 22° (NNE) 4,546 ? -33.6°
Reaches altitude 10° 03:44:38 10° 28° (NNE) 3,566 ? -33.0°
Maximum altitude 03:52:36 48° 101° (E) 1,826 ? -31.7°
Drops below altitude 10° 04:00:32 10° 174° (S) 3,559 ? -30.3°
Sets 04:03:27 0° 180° (S) 4,536 ? -29.8°
